Вернуться в каталог

TRANSIT 4B

АктивенНавигацияLEO
NORAD 202·PAYLOAD·🇺🇸 United States

Запущен Nov 15, 1961 с Cape Canaveral Space Force Station

Loading…

Ближайшие Пролёты (ближайшие 24 часа)

TLE

СвежийSource: Space-Track

Эпоха: Sep 9, 2026, 03:32 UTC

1 00202U 61031A   26252.14736032  .00000046  00000-0  29127-4 0  9993
2 00202  32.4379 301.7486 0100789 132.6238 228.2932 13.63798040232469

Отслеживайте TRANSIT 4B в реальном времени с AllMySat

Download on the App Store